Kingsville, TX

11:18 AM CST on February 20, 2017 (GMT -0600)
Kingsville Naval Air Station

Weather History for KNQI - October, 2012

Change the Weather History Date:

Saturday, October 13, 2012

  Actual Average Record
Temperature  
Mean Temperature 84 °F -  
Max Temperature 91 °F 81 °F 97 °F (2015)
Min Temperature 77 °F 62 °F 60 °F (1996)
Cooling Degree Days 19    
Growing Degree Days 34 (Base 50)    
Moisture  
Dew Point 74 °F    
Average Humidity 76    
Maximum Humidity 94    
Minimum Humidity 59    
Precipitation  
Precipitation 0.00 in - - ()
Sea Level Pressure  
Sea Level Pressure 29.98 in    
Wind  
Wind Speed 13 mph (SE)    
Max Wind Speed 26 mph    
Max Gust Speed 36 mph    
Visibility 10 miles    
Events      
Averages and records for this station are not official NWS values.
T = Trace of Precipitation, MM = Missing Value Source: NWS Daily Summary

Daily Weather History Graph

Daily Weather History Graph

Search for Another Location

Airport or City:

Trip Planner

Search our weather history database for the weather conditions in past years. The results will help you decide how hot, cold, wet, or windy it might be!

Date:

Astronomy

Oct. 13, 2012 Rise Set
Actual Time 7:30 AM CDT 7:03 PM CDT
Civil Twilight 7:06 AM CDT 7:27 PM CDT
Nautical Twilight 6:39 AM CDT 7:54 PM CDT
Astronomical Twilight 6:12 AM CDT 8:21 PM CDT
Moon 5:29 AM CDT (10/13) 5:43 PM CDT (10/13)
Length of Visible Light 12h 20m
Length of Day
11h 33m
Waning Crescent, 5% of the Moon is Illuminated
Oct 13
Waning Crescent
Oct 15
New
Oct 21
First Quarter
Oct 29
Full
Nov 6
Last Quarter

Hourly Weather History & Observations

Time (CDT) Temp. Heat Index Dew Point Humidity Pressure Visibility Wind Dir Wind Speed Gust Speed Precip Events Conditions
12:56 AM 79.0 °F - 75.0 °F 88% 30.06 in 9.0 mi SE 10.4 mph - N/A   Clear
1:56 AM 79.0 °F - 73.9 °F 84% 30.05 in 9.0 mi SE 11.5 mph - N/A   Clear
2:56 AM 78.1 °F - 73.0 °F 84% 30.04 in 10.0 mi ESE 11.5 mph - N/A   Clear
3:56 AM 78.1 °F - 73.0 °F 84% 30.02 in 10.0 mi SE 10.4 mph - N/A   Clear
4:56 AM 78.1 °F - 73.0 °F 84% 30.02 in 10.0 mi SE 6.9 mph - N/A   Clear
5:56 AM 78.1 °F - 73.9 °F 87% 30.03 in 9.0 mi SE 8.1 mph - N/A   Clear
6:56 AM 77.0 °F - 73.9 °F 90% 30.02 in 9.0 mi SE 8.1 mph - N/A   Clear
7:56 AM 77.0 °F - 75.0 °F 94% 30.02 in 8.0 mi SSE 4.6 mph - N/A   Partly Cloudy
8:19 AM 78.8 °F - 75.2 °F 89% 30.03 in 8.0 mi SSE 6.9 mph - N/A   Mostly Cloudy
8:56 AM 81.0 °F 86.7 °F 75.0 °F 82% 30.03 in 9.0 mi SSE 11.5 mph 18.4 mph N/A   Overcast
9:56 AM 84.0 °F 92.6 °F 75.9 °F 76% 30.03 in 9.0 mi SSE 15.0 mph 25.3 mph N/A   Mostly Cloudy
10:31 AM 84.2 °F 92.3 °F 75.2 °F 74% 30.03 in 10.0 mi SSE 21.9 mph 27.6 mph N/A   Mostly Cloudy
10:56 AM 88.0 °F 97.5 °F 75.0 °F 65% 30.03 in 10.0 mi SSE 18.4 mph 25.3 mph N/A   Overcast
11:56 AM 89.1 °F 98.0 °F 73.9 °F 61% 30.01 in 10.0 mi SSE 19.6 mph 29.9 mph N/A   Mostly Cloudy
12:56 PM 90.0 °F 100.2 °F 75.0 °F 61% 29.98 in 10.0 mi SE 21.9 mph 28.8 mph N/A   Mostly Cloudy
1:56 PM 91.0 °F 101.6 °F 75.0 °F 59% 29.95 in 10.0 mi SE 21.9 mph 31.1 mph N/A   Mostly Cloudy
2:56 PM 91.0 °F 101.6 °F 75.0 °F 59% 29.92 in 10.0 mi SE 21.9 mph 34.5 mph N/A   Partly Cloudy
3:56 PM 90.0 °F 100.2 °F 75.0 °F 61% 29.90 in 10.0 mi SE 26.5 mph 35.7 mph N/A   Partly Cloudy
4:56 PM 89.1 °F 98.0 °F 73.9 °F 61% 29.88 in 10.0 mi SE 26.5 mph 34.5 mph N/A   Partly Cloudy
5:56 PM 87.1 °F 94.5 °F 73.0 °F 63% 29.88 in 10.0 mi SE 20.7 mph 32.2 mph N/A   Clear
6:56 PM 84.0 °F 90.2 °F 73.0 °F 69% 29.89 in 10.0 mi SE 20.7 mph 28.8 mph N/A   Clear
7:56 PM 82.0 °F 86.7 °F 72.0 °F 71% 29.91 in 10.0 mi SE 21.9 mph 27.6 mph N/A   Clear
8:56 PM 81.0 °F 85.8 °F 73.0 °F 77% 29.94 in 10.0 mi SSE 16.1 mph - N/A   Clear
9:56 PM 80.1 °F 84.2 °F 73.0 °F 79% 29.96 in 10.0 mi SSE 10.4 mph - N/A   Clear
10:56 PM 79.0 °F - 73.0 °F 82% 29.96 in 10.0 mi SSE 10.4 mph - N/A   Clear
11:56 PM 78.1 °F - 73.0 °F 84% 29.95 in 9.0 mi SSE 9.2 mph - N/A   Clear